TimeEST,TemperatureF,Dew PointF,Humidity,Sea Level PressureIn,VisibilityMPH,Wind Direction,Wind SpeedMPH,Gust SpeedMPH,PrecipitationIn,Events,Conditions,WindDirDegrees,DateUTC
12:53 AM,14.0,10.0,84,30.15,10.0,Calm,Calm,-,N/A,,Overcast,0,2013-01-06 05:53:00
1:53 AM,17.1,10.9,77,30.13,10.0,Calm,Calm,-,N/A,,Overcast,0,2013-01-06 06:53:00
2:53 AM,17.1,12.0,81,30.09,10.0,West,3.5,-,N/A,,Overcast,270,2013-01-06 07:53:00
3:53 AM,17.1,12.0,81,30.04,10.0,WSW,3.5,-,N/A,,Overcast,250,2013-01-06 08:53:00
5:14 AM,19.4,14.0,80,29.99,2.5,Calm,Calm,-,0.00,Snow,Light Snow,0,2013-01-06 10:14:00
5:28 AM,19.4,15.8,86,29.99,3.0,Calm,Calm,-,0.00,Snow,Light Snow,0,2013-01-06 10:28:00
5:41 AM,19.4,15.8,86,29.98,7.0,Calm,Calm,-,0.00,Snow,Light Snow,0,2013-01-06 10:41:00
5:53 AM,19.9,16.0,85,29.99,6.0,Calm,Calm,-,0.00,Snow,Light Snow,0,2013-01-06 10:53:00
6:17 AM,19.4,17.6,93,29.98,3.0,Calm,Calm,-,0.00,Snow,Light Snow,0,2013-01-06 11:17:00
6:43 AM,19.4,17.6,93,29.98,2.5,Calm,Calm,-,0.00,Snow,Light Snow,0,2013-01-06 11:43:00
6:53 AM,19.0,17.1,92,29.99,2.5,Calm,Calm,-,0.00,Snow,Light Snow,0,2013-01-06 11:53:00
7:01 AM,19.4,17.6,93,29.97,3.0,Calm,Calm,-,0.00,Snow,Light Snow,0,2013-01-06 12:01:00
7:11 AM,19.4,17.6,93,29.97,5.0,Calm,Calm,-,0.00,Snow,Light Snow,0,2013-01-06 12:11:00
7:53 AM,19.0,16.0,88,29.97,6.0,SSW,3.5,-,0.00,Snow,Light Snow,200,2013-01-06 12:53:00
8:53 AM,21.9,19.0,89,29.97,5.0,SSW,4.6,-,0.00,Snow,Light Snow,200,2013-01-06 13:53:00
9:53 AM,25.0,21.0,85,29.96,10.0,South,3.5,-,0.00,,Overcast,170,2013-01-06 14:53:00
10:53 AM,28.9,21.9,75,29.92,10.0,South,4.6,-,0.02,,Mostly Cloudy,170,2013-01-06 15:53:00
11:49 AM,30.2,24.8,80,29.89,10.0,SSE,6.9,-,0.01,,Overcast,150,2013-01-06 16:49:00
11:53 AM,30.0,24.1,79,29.91,10.0,SE,9.2,-,0.01,,Overcast,140,2013-01-06 16:53:00
12:17 PM,30.2,24.8,80,29.88,9.0,SSE,8.1,-,0.00,Snow,Light Snow,160,2013-01-06 17:17:00
12:53 PM,30.9,26.1,82,29.88,7.0,SE,10.4,-,0.00,Snow,Light Snow,140,2013-01-06 17:53:00
1:53 PM,32.0,26.1,79,29.87,10.0,SSE,6.9,-,0.01,,Overcast,160,2013-01-06 18:53:00
2:53 PM,34.0,27.0,75,29.87,10.0,South,4.6,-,N/A,,Overcast,180,2013-01-06 19:53:00
3:53 PM,33.1,28.0,82,29.87,3.0,South,4.6,-,0.00,Snow,Light Snow,190,2013-01-06 20:53:00
4:53 PM,32.0,28.9,88,29.88,5.0,Calm,Calm,-,0.00,Snow,Light Snow,0,2013-01-06 21:53:00
5:53 PM,30.9,28.9,92,29.89,5.0,North,5.8,-,0.00,Snow,Light Snow,360,2013-01-06 22:53:00
6:17 PM,28.4,26.6,93,29.89,2.5,NE,13.8,-,0.00,Snow,Light Snow,40,2013-01-06 23:17:00
6:49 PM,24.8,21.2,86,29.91,4.0,NNE,12.7,-,0.00,Snow,Light Snow,20,2013-01-06 23:49:00
6:53 PM,24.1,21.0,88,29.92,4.0,NNE,16.1,-,0.00,Snow,Light Snow,20,2013-01-06 23:53:00
7:53 PM,21.9,18.0,85,29.94,6.0,North,13.8,-,0.00,Snow,Light Snow,360,2013-01-07 00:53:00
8:07 PM,21.2,17.6,86,29.93,3.0,North,11.5,-,0.00,Snow,Light Snow,350,2013-01-07 01:07:00
8:24 PM,21.2,17.6,86,29.94,2.5,North,11.5,-,0.00,Snow,Light Snow,350,2013-01-07 01:24:00
8:38 PM,21.2,17.6,86,29.94,1.5,NNW,10.4,-,0.00,Snow,Light Snow,340,2013-01-07 01:38:00
8:53 PM,21.0,18.0,88,29.96,1.8,NNW,10.4,-,0.00,Snow,Light Snow,340,2013-01-07 01:53:00
9:14 PM,21.2,17.6,86,29.95,2.5,North,9.2,-,0.00,Snow,Light Snow,350,2013-01-07 02:14:00
9:37 PM,21.2,17.6,86,29.95,3.0,North,10.4,-,0.00,Snow,Light Snow,350,2013-01-07 02:37:00
9:51 PM,21.2,17.6,86,29.96,2.5,North,9.2,-,0.00,Snow,Light Snow,350,2013-01-07 02:51:00
9:53 PM,21.0,18.0,88,29.97,2.5,North,10.4,-,0.00,Snow,Light Snow,350,2013-01-07 02:53:00
10:06 PM,21.2,17.6,86,29.97,3.0,North,11.5,-,0.00,Snow,Light Snow,360,2013-01-07 03:06:00
10:53 PM,19.9,16.0,85,30.01,7.0,North,13.8,-,0.00,Snow,Light Snow,360,2013-01-07 03:53:00
11:53 PM,19.0,15.1,85,30.04,3.0,North,13.8,-,0.00,Snow,Light Snow,350,2013-01-07 04:53:00